RH
50 47 49 51 52 50 49 48 44 35 27 23 21 19 19 18 19 22 24 25 25 24 22 20 18 16 15 15 16 16 13 13 13 14 15 15 16 17 17 17 17 17 16 14 14 13 14
54 56 54 49 48 50 50 48 46 44 41 36 27 24 22 22 22 22 23 24 25 25 23 22 20 18 17 17 16 15 14 13 14 15 15 16 17 18 19 19 19 18 18 17 16 16 15
58 54 58 57 56 49 46 47 48 47 44 41 39 37 34 29 27 28 28 26 25 24 24 24 23 23 21 21 17 16 15 15 15 15 16 17 17 18 19 20 20 20 19 19 17 19 17
62 62 56 54 54 54 52 49 46 44 45 45 43 40 38 36 35 34 33 32 31 29 28 26 25 25 24 23 20 17 16 16 16 16 16 18 19 19 20 21 21 21 21 22 18 17 18
63 60 58 57 55 51 50 49 48 47 45 43 42 42 40 38 37 36 35 34 32 31 30 30 29 29 27 24 23 22 18 17 17 18 18 18 20 21 21 22 24 23 26 23 20 20 22
47 56 54 50 48 48 49 49 47 45 44 45 43 41 40 40 38 37 36 34 33 32 31 30 28 29 26 26 25 24 21 20 21 19 20 20 20 21 21 23 26 28 25 24 23 25 25
11 17 27 32 34 33 32 32 34 38 42 44 43 41 40 38 38 38 37 37 36 34 32 31 29 28 28 28 27 26 26 28 28 25 22 22 22 20 20 26 28 27 28 28 29 29 31
11 10 10 10 10 10 10 10 11 12 16 21 28 34 37 39 39 38 36 37 36 34 28 28 27 26 26 28 28 31 33 33 31 30 28 26 23 22 24 26 28 29 30 29 29 29 32
14 14 14 13 13 13 13 12 12 12 11 10 9 10 11 16 22 28 31 33 32 30 25 18 18 18 21 26 30 30 33 33 33 33 30 28 26 24 27 28 29 29 30 32 31 32 35
14 14 15 15 15 15 15 15 15 15 14 14 14 13 13 12 10 10 10 14 18 21 19 16 17 19 19 24 29 28 31 33 36 34 33 31 27 26 27 29 30 34 28 31 33 38 38
16 16 15 15 15 15 14 14 14 14 14 14 14 14 14 14 14 14 14 11 9 9 43 16 20 22 22 26 26 28 29 32 32 33 34 33 32 33 32 31 31 34 34 36 38 41 47
18 18 17 17 17 16 16 15 15 14 14 14 14 14 14 14 14 14 15 15 14 18 54 16 22 25 28 32 32 32 34 34 32 38 39 36 34 32 28 29 35 38 40 41 43 47 54
16 16 15 15 15 15 14 13 13 12 12 12 12 11 11 10 11 12 13 14 17 30 12 16 18 27 33 33 33 33 34 37 39 41 40 36 33 30 27 30 38 42 46 44 49 69 46
15 14 14 13 12 13 12 11 10 10 9 8 9 9 9 9 9 10 12 15 28 15 12 16 17 15 18 22 29 30 35 36 36 40 44 46 42 25 27 27 36 37 48 43 40 32 22
17 17 16 18 23 41 49 53 50 42 16 8 10 13 13 15 15 18 23 30 18 13 15 14 18 25 25 21 24 34 38 36 31 28 40 40 38 27 34 33 33 44 50 42 51 46 52
44 45 63 66 68 66 67 63 62 64 64 53 28 48 55 54 48 44 50 46 32 22 21 21 31 33 36 35 35 36 30 25 28 30 29 37 45 40 41 42 46 46 46 52 59 48 39
54 61 62 61 65 64 47 23 19 39 51 58 61 59 59 62 66 73 75 66 62 61 62 52 48 47 44 46 44 47 40 35 37 36 30 34 41 40 43 47 48 48 58 57 50 47 38
45 30 20 8 7 2 1 1 1 1 1 2 4 12 39 47 64 65 68 73 77 76 72 64 64 64 68 72 71 65 60 55 45 41 40 41 50 52 48 50 50 53 49 47 48 41 49
2 2 2 2 2 2 2 2 2 2 1 1 2 2 11 24 71 98 99 100 98 96 92 94 95 89 93 96 98 86 83 77 73 68 66 63 61 60 52 55 54 54 54 54 53 52 56
2 2 3 3 3 3 3 3 2 2 2 2 2 3 8 20 64 88 96 98 97 100 100 99 98 98 98 96 96 98 99 99 92 90 93 95 96 94 66 55 57 59 52 57 63 71 69
4 4 2 2 1 1 1 1 2 3 3 2 2 3 3 8 26 48 65 75 85 94 90 93 95 99 99 95 92 97 100 99 100 100 99 99 98 95 89 83 86 86 77 79 92 82 86
2 1 1 1 1 1 1 1 1 1 2 4 3 3 3 5 10 9 8 10 13 21 34 39 56 68 90 94 97 92 92 94 94 79 89 97 97 98 98 91 83 97 97 97 96 96 99
1 1 1 1 1 1 1 1 1 1 1 4 6 5 4 4 4 8 15 14 15 19 21 30 36 30 27 36 37 36 40 43 44 40 50 50 95 98 96 95 100 99 98 99 100 99 100
1 1 1 1 1 1 1 1 1 1 2 4 6 7 6 5 4 7 9 12 20 23 20 16 25 26 25 18 16 13 10 9 11 10 36 94 95 99 97 100 96 97 96 96 96 97 96
1 1 1 1 1 1 2 2 4 6 7 8 8 9 9 8 6 6 13 11 11 23 24 26 22 26 29 23 22 18 34 52 77 96 97 96 96 94 96 95 93 94 94 93 95 96 96
1 1 1 1 1 2 2 4 7 8 8 9 12 14 20 19 17 14 13 22 24 22 21 22 27 27 27 34 43 65 64 70 73 42 64 47 72 85 91 83 90 96 95 97 97 99 97
2 2 1 1 2 2 5 7 9 12 15 16 29 34 34 30 31 46 55 41 48 41 61 46 36 36 39 54 88 88 77 57 78 74 86 81 53 82 85 80 87 91 84 96 95 94 96
2 2 2 2 2 3 6 8 11 14 18 28 50 57 60 57 48 59 66 60 47 84 78 73 55 58 75 84 72 68 81 81 79 89 100 94 90 93 90 97 91 73 78 78 96 97 99
3 2 2 2 3 6 9 14 17 19 38 43 63 81 96 91 59 70 86 86 84 80 88 73 72 79 72 88 97 96 99 86 94 98 98 95 92 96 94 100 100 98 97 99 98 97 96
Wind_Speed
12 12 13 13 14 15 15 14 13 12 11 9 7 5 4 3 3 3 2 1 1 3 3 4 4 4 5 6 8 8 6 6 6 6 6 7 8 10 11 11 11 14 13 14 13 13 13
10 10 11 12 12 13 13 13 12 11 10 8 6 4 2 1 2 2 1 2 3 4 5 6 7 8 7 8 8 7 8 8 8 8 8 9 10 11 13 13 14 14 14 13 15 14 15
8 9 10 10 11 11 11 11 11 10 9 7 6 4 3 2 3 3 3 3 5 7 8 9 9 9 8 10 10 9 9 10 10 10 11 11 11 13 12 12 14 15 15 17 16 16 17
6 7 9 9 9 9 9 9 9 8 8 7 6 5 4 3 3 3 4 5 7 8 10 12 12 12 12 11 11 11 11 11 12 13 13 13 14 15 15 15 17 17 18 18 16 13 15
6 7 8 8 9 9 9 8 8 8 7 6 6 6 5 5 4 5 6 7 8 10 11 13 13 14 15 13 13 13 14 13 13 14 15 16 16 17 17 16 17 17 14 15 15 16 18
11 9 9 9 9 9 10 10 9 9 8 8 7 6 6 6 5 6 7 8 9 11 13 15 16 16 14 15 13 13 15 15 15 17 18 19 20 21 21 19 14 10 13 17 19 19 18
10 11 11 11 11 11 11 11 11 10 10 10 9 8 7 8 8 8 9 10 11 14 13 14 17 19 19 18 16 15 16 17 19 20 20 21 22 26 19 16 19 22 22 24 22 22 24
9 10 12 11 11 11 11 12 12 12 12 12 12 11 10 10 11 11 11 12 14 16 21 17 20 22 22 23 25 24 24 24 23 23 22 23 28 21 21 22 23 24 24 24 26 24 24
12 11 11 12 13 13 13 13 13 13 14 13 13 13 13 12 12 13 13 14 16 19 24 26 22 23 26 27 27 26 24 24 24 24 22 24 23 15 15 17 21 24 25 25 25 27 30
15 15 15 15 15 15 15 16 16 15 16 17 16 15 14 14 13 14 15 16 17 19 19 19 17 17 16 19 22 21 22 23 23 21 21 20 24 24 25 25 25 25 26 25 24 22 18
17 17 17 18 19 19 19 18 19 19 19 19 19 18 18 17 16 16 16 16 16 15 5 7 11 11 11 12 11 10 14 20 21 19 17 16 16 18 21 24 22 25 24 23 22 21 23
20 20 21 21 21 22 23 23 23 23 22 21 22 22 21 20 19 19 18 16 15 6 9 7 10 9 11 13 16 16 13 16 18 20 23 26 27 27 27 27 26 28 23 20 21 19 12
22 23 23 24 24 26 27 27 27 27 27 26 26 25 24 23 22 21 19 16 10 9 6 8 11 10 11 13 15 18 20 21 19 15 22 25 29 31 31 30 30 28 18 6 6 5 8
22 23 24 25 24 26 28 29 30 30 31 28 28 27 26 25 23 21 19 16 13 10 13 12 16 21 22 20 20 21 24 28 27 28 30 18 20 21 24 25 25 20 22 11 9 7 11
21 22 23 24 25 26 28 30 32 32 33 31 30 27 26 25 23 20 18 19 15 13 15 22 21 21 23 20 23 21 24 29 28 27 26 11 17 20 19 19 20 19 24 24 16 21 11
21 22 23 25 28 28 28 30 32 33 33 34 30 27 25 23 21 19 19 25 20 13 20 21 19 12 14 15 15 14 19 23 16 15 17 23 22 21 27 28 27 28 19 8 10 8 16
25 27 29 30 29 30 32 33 32 30 30 30 29 28 25 21 20 18 22 28 28 27 27 24 21 22 21 22 22 22 22 23 18 21 26 28 29 29 26 29 26 29 26 24 23 24 15
24 25 26 25 24 24 24 25 27 27 26 27 28 24 21 21 22 26 29 26 21 20 21 23 26 28 32 27 27 27 32 29 26 28 26 24 28 30 33 29 28 29 31 31 29 24 27
15 14 15 17 19 22 24 26 28 30 31 29 27 21 15 14 11 13 16 19 23 27 28 21 20 18 20 23 21 24 24 19 16 21 21 22 26 25 27 28 28 32 40 44 38 37 42
13 16 18 20 22 24 25 27 29 30 31 30 29 21 19 15 16 18 20 19 17 16 16 17 20 24 30 32 29 27 25 21 21 19 24 31 30 27 25 29 24 23 23 30 36 35 38
16 17 19 20 22 24 25 26 27 30 30 30 27 22 23 15 15 20 26 30 33 31 33 33 29 23 27 27 21 24 29 27 21 24 29 26 36 41 48 51 44 38 39 34 30 40 32
17 19 21 23 25 27 28 29 29 28 29 28 27 24 22 23 16 18 18 20 23 28 30 32 34 39 32 31 27 32 33 29 33 30 27 28 22 30 37 45 47 50 52 55 57 61 63
21 23 24 25 26 27 29 29 30 31 30 30 29 27 25 23 22 20 19 18 20 22 16 15 20 25 27 29 31 32 35 38 43 40 37 37 34 28 32 31 28 25 18 28 28 22 22
21 23 25 26 27 27 28 29 29 28 28 27 28 29 29 26 23 21 20 21 17 20 28 17 18 22 21 22 27 30 31 26 22 24 22 29 31 38 36 31 18 8 10 6 2 12 12
21 24 26 27 28 28 28 29 30 29 28 29 28 28 29 28 26 23 19 23 22 16 21 25 26 19 21 23 22 15 12 4 10 6 9 10 11 9 7 18 6 20 16 23 18 9 18
23 25 26 28 29 29 30 30 30 29 28 28 29 29 28 27 25 22 22 23 26 19 21 18 19 22 16 12 9 4 4 8 6 8 13 23 16 9 15 8 4 10 15 18 12 7 23
26 29 31 31 31 29 28 28 28 29 30 29 27 28 27 27 18 19 15 20 24 26 25 17 11 1 3 4 4 4 4 8 5 10 19 22 23 8 8 7 6 13 23 21 7 13 22
28 30 31 32 31 31 32 30 29 28 27 26 24 24 25 26 19 15 22 22 16 12 16 16 9 7 3 3 2 2 3 7 6 14 11 11 11 7 7 5 3 25 25 16 11 13 18
29 30 31 32 31 29 29 29 29 28 26 27 22 22 20 25 23 13 9 10 12 15 18 19 14 11 6 4 6 4 10 9 14 4 10 6 6 5 4 6 16 20 20 17 14 15 17
Wind_Direction
25 27 34 38 42 46 49 50 53 58 62 68 76 94 117 146 178 204 186 174 292 306 292 279 272 265 263 261 257 263 252 242 238 239 237 241 246 255 258 259 262 271 272 269 264 263 267
17 19 22 29 36 40 45 47 48 51 54 56 62 73 92 181 213 225 242 278 286 284 281 279 276 272 267 267 262 259 254 247 243 243 244 245 248 254 259 264 263 271 275 270 266 264 265
8 7 9 14 20 28 33 39 41 42 46 47 41 35 11 314 282 273 269 277 278 281 284 282 278 277 273 264 260 259 254 248 247 247 250 252 252 253 262 269 267 272 272 274 273 263 262
347 351 353 359 2 9 13 21 24 30 31 30 28 22 9 344 314 291 280 282 284 285 284 281 277 279 276 265 261 255 251 251 252 252 251 253 255 256 259 264 270 275 277 275 273 255 258
320 327 332 337 343 348 350 355 357 1 6 8 3 6 6 351 327 304 298 296 291 286 283 281 279 283 282 276 262 255 247 250 254 256 255 255 256 258 259 262 271 269 260 269 262 268 270
312 311 316 321 326 329 331 334 335 337 335 334 333 338 343 342 330 313 308 304 296 288 284 281 281 278 275 271 265 263 248 252 258 258 257 254 254 256 257 254 252 253 264 270 264 277 270
313 311 312 313 315 318 320 321 321 321 319 316 314 316 316 314 313 310 307 304 300 296 281 278 274 272 272 270 267 260 252 257 260 257 255 256 253 255 270 264 255 266 271 273 275 281 275
313 317 318 317 318 317 317 317 317 315 313 308 307 307 305 303 303 302 301 302 301 295 290 280 277 274 271 266 262 259 260 262 259 259 256 254 257 266 259 260 264 269 272 271 282 281 278
303 305 307 310 313 315 315 313 312 313 311 309 308 307 304 301 298 296 297 297 299 300 299 291 281 270 261 259 259 260 258 257 257 254 256 256 260 258 260 264 264 267 266 274 278 283 285
297 302 303 302 303 303 305 306 306 305 305 305 304 304 304 304 302 301 299 297 299 304 304 287 273 264 259 253 256 256 250 248 248 254 255 262 260 260 263 265 266 266 274 271 274 276 279
294 295 296 299 301 300 299 297 297 299 300 300 300 299 298 298 299 298 299 301 304 311 299 274 252 258 254 236 246 253 246 242 243 247 247 253 261 266 266 271 271 266 273 269 269 271 279
292 295 296 297 299 299 299 298 298 296 294 294 294 295 295 294 294 293 293 296 301 289 247 264 260 262 258 255 249 250 252 242 243 250 255 262 268 269 272 272 267 266 265 264 272 269 262
296 297 297 298 300 300 299 298 297 295 294 294 292 290 290 288 288 286 285 285 287 221 268 262 266 270 270 267 265 258 256 251 245 258 266 274 272 276 272 266 260 254 247 265 244 205 256
301 300 300 300 301 302 302 301 301 299 296 294 292 292 292 290 287 284 279 272 236 245 231 259 273 279 278 278 269 261 258 255 255 259 269 271 279 266 261 253 252 253 228 221 253 251 281
303 303 304 305 304 304 304 303 302 301 298 295 294 293 293 293 291 286 272 248 251 269 258 260 270 277 274 270 258 258 256 263 266 266 248 251 258 272 256 259 248 242 226 240 254 266 274
301 303 308 312 312 311 313 311 306 304 300 298 297 301 301 295 292 285 269 255 256 253 261 266 276 252 271 268 271 273 272 272 268 249 260 263 274 264 259 253 238 231 242 222 211 257 254
302 306 310 304 309 309 309 308 306 303 299 300 295 295 300 296 288 273 267 272 278 276 272 272 269 263 267 269 263 263 258 263 257 262 271 262 257 264 260 243 243 239 236 236 244 246 258
323 321 317 322 321 327 331 335 332 330 324 313 300 299 285 279 271 273 275 279 275 266 259 256 265 266 272 273 271 261 259 256 265 273 269 263 259 259 259 265 258 248 249 248 239 244 243
345 355 359 354 351 347 345 343 340 339 339 341 343 335 302 278 264 262 258 264 267 274 274 271 263 263 252 259 279 268 272 273 258 265 262 264 248 264 265 259 261 254 254 246 244 254 253
357 356 355 353 349 348 345 343 341 340 340 341 340 338 328 297 274 271 269 275 268 252 258 265 268 259 267 267 267 271 275 273 254 247 256 261 251 245 254 258 278 274 273 261 249 246 254
354 353 352 352 350 349 346 345 344 339 339 338 340 334 328 314 289 275 278 282 287 282 269 280 283 283 288 294 285 273 262 261 260 260 258 261 261 259 263 270 268 263 258 258 259 260 252
356 355 354 354 352 349 347 344 341 337 332 333 330 327 318 312 307 306 306 296 286 280 286 281 274 272 281 294 291 289 289 286 288 274 280 279 293 297 283 276 273 269 268 268 270 273 274
0 358 355 352 350 346 342 340 337 333 331 329 326 321 317 309 307 303 300 295 296 296 306 301 293 291 288 284 289 293 294 294 290 292 293 291 289 286 275 289 278 266 277 265 262 264 280
360 356 353 350 347 344 342 341 339 336 334 330 324 320 317 313 310 304 297 291 280 278 293 287 280 298 297 302 297 300 300 297 288 283 280 275 279 276 269 273 258 199 32 358 49 33 33
358 354 351 349 347 347 347 346 345 345 343 339 335 328 322 319 316 313 309 295 289 286 288 282 286 280 293 309 315 328 343 353 10 10 165 9 338 322 4 326 306 47 358 4 350 335 7
352 352 350 349 350 349 350 350 347 343 340 338 332 330 327 325 325 312 309 302 299 304 302 291 296 288 284 303 339 323 339 337 339 321 303 335 339 326 336 294 305 17 16 355 326 246 342
355 353 350 346 346 347 348 347 343 339 335 336 333 329 326 323 324 320 329 318 306 316 308 327 348 220 269 328 330 330 315 326 342 334 336 345 348 344 315 272 267 306 336 345 343 308 332
353 350 346 343 342 343 344 344 343 339 339 340 335 331 328 321 330 321 314 306 304 314 311 329 354 346 11 348 278 303 298 319 322 321 330 327 342 346 336 308 287 316 328 355 336 320 319
350 345 341 340 340 339 339 339 341 342 340 342 339 334 331 316 326 319 340 329 307 303 303 319 324 308 285 299 304 315 312 313 316 297 301 299 319 313 324 313 315 325 335 338 332 321 315